This is the latest recevied weather packets stored in our database for station/object K2CAT. If no packets are shown the sender has not sent any weather packets the latest 10 day(s).
| Time | Temp. | Humidity | Pressure | Rain* | Wind** | Luminosity | Snow |
|---|---|---|---|---|---|---|---|
| 1777735804 | 12.78° C | 74% | 1012.4 hPa | 0 mm | - | 849 W/m² | - |
| 1777735501 | 12.78° C | 74% | 1012.2 hPa | 0 mm | - | 393 W/m² | - |
| 1777735198 | 12.22° C | 73% | 1012.5 hPa | 0 mm | - | 502 W/m² | - |
| 1777734895 | 13.33° C | 69% | 1012.4 hPa | 0 mm | - | 302 W/m² | - |
| 1777734593 | 12.78° C | 60% | 1012.5 hPa | 0 mm | - | 362 W/m² | - |
| 1777734290 | 12.78° C | 70% | 1012.4 hPa | 0 mm | - | 406 W/m² | - |
| 1777733985 | 12.78° C | 65% | 1012.5 hPa | 0 mm | - | 357 W/m² | - |
| 1777733683 | 12.22° C | 63% | 1012.6 hPa | 0 mm | - | 424 W/m² | - |
| 1777733379 | 11.67° C | 63% | 1012.6 hPa | 0 mm | - | 300 W/m² | - |
| 1777733076 | 11.67° C | 64% | 1012.2 hPa | 0 mm | - | 250 W/m² | - |
| 1777732772 | 11.67° C | 63% | 1012.4 hPa | 0 mm | - | 311 W/m² | - |
| 1777732469 | 11.67° C | 68% | 1012.6 hPa | 0 mm | - | 385 W/m² | - |
| 1777732166 | 11.11° C | 68% | 1012.3 hPa | 0 mm | - | 318 W/m² | - |
| 1777731863 | 10.56° C | 70% | 1012.7 hPa | 0 mm | - | 266 W/m² | - |
| 1777731560 | 10.56° C | 72% | 1012.5 hPa | 0 mm | - | 283 W/m² | - |
| 1777731258 | 10° C | 73% | 1012.5 hPa | 0 mm | - | 184 W/m² | - |
| 1777730955 | 10° C | 76% | 1012.6 hPa | 0 mm | - | 138 W/m² | - |
| 1777730654 | 10° C | 77% | 1012.7 hPa | 0 mm | - | 123 W/m² | - |
| 1777730349 | 10° C | 77% | 1012.7 hPa | 0 mm | - | 126 W/m² | - |
| 1777730046 | 10° C | 77% | 1012.7 hPa | 0 mm | - | 96 W/m² | - |
| 1777729742 | 10° C | 81% | 1012.8 hPa | 0 mm | - | 117 W/m² | - |
| 1777729439 | 9.44° C | 79% | 1012.7 hPa | 0 mm | - | 102 W/m² | - |
| 1777729135 | 9.44° C | 78% | 1012.8 hPa | 0 mm | - | 106 W/m² | - |
| 1777728832 | 10° C | 81% | 1012.6 hPa | 0 mm | - | 114 W/m² | - |
| 1777728529 | 10° C | 83% | 1012.5 hPa | 0 mm | - | 158 W/m² | - |
* Rain latest hour (hover to see other rain measurements)
** Current wind speed in m/s (hover to see current wind gust speed)